Weather Roundup
Issued by NWS

Home | Current Version | Previous Version | Text Only | Print | Product List | Glossary On
Versions: 1 2 3 4 5 6 7 8 9 10 11 12 13 14 15 16 17 18 19 20 21 22 23 24 25 26 27 28 29 30 31 32 33 34 35 36 37 38 39 40 41 42 43 44 45 46 47 48 49 50
986
NZUS93 KARX 052010
HRRWXR

CURRENT HOURLY OBSERVATIONS ACROSS
MUCH OF THE UPPER MISSISSIPPI VALLEY
NATIONAL WEATHER SERVICE LA CROSSE WI
300 PM CDT THU MAY 05 2016


...SOUTHEAST MINNESOTA...


CITY           SKY/WX    TMP DP  RH WIND       PRES   REMARKS
ROCHESTER      SUNNY     69  35  28 NW5       30.02F
ROCHESTER/MAYO FAIR      69  32  25 SW7       30.02S
WINONA         PTSUNNY   68  36  30 NW5       30.02S
AUSTIN         SUNNY     68  36  30 SW6       30.01F
ALBERT LEA     SUNNY     72  30  21 W7        30.01F
DODGE CENTER   SUNNY     72  34  25 NW6       30.02S
PRESTON        PTSUNNY   64  34  31 NW8       30.03F
OWATONNA       LGT RAIN  70  30  23 W5        30.01F
FARIBAULT      SUNNY     73  34  23 SW8       30.00F
$$

...ELSEWHERE IN MINNESOTA...


CITY           SKY/WX    TMP DP  RH WIND       PRES   REMARKS
MINNEAPOLIS    MOSUNNY   73  31  21 SW12      29.98F
INTNL FALLS    SUNNY     83  43  24 SW10G24   29.75F
DULUTH         SUNNY     73  37  27 SW15      29.88F
RED WING       PTSUNNY   70  30  23 W6        29.98F
REDWOOD FALLS  SUNNY     81  37  20 SW14      29.96F
MANKATO        SUNNY     73  30  20 SW7       30.00F
WORTHINGTON    SUNNY     74  38  27 SW8       30.03S
FAIRMONT       SUNNY     72  34  25 SW8       30.01F
$$

...SOUTHWEST WISCONSIN...


CITY           SKY/WX    TMP DP  RH WIND       PRES   REMARKS
LA CROSSE      SUNNY     68  33  27 NW6       30.01F
PRAIRIE DU CHI SUNNY     65  31  27 N5        30.02F
BOSCOBEL       SUNNY     68  32  26 VRB3      30.01F
LONE ROCK      SUNNY     66  39  37 MISG      30.01F
PLATTEVILLE    SUNNY     63  38  39 W7        30.02S
FORT MC COY    SUNNY     67  30  25 W8G16     30.01F
CAMP DOUGLAS   MOSUNNY   66  36  32 W6        29.99F
MAUSTON-NEW LI CLEAR     66  33  29 W9        30.00S
VIROQUA        FAIR      64  29  26 W7        30.02F
WIS DELLS      SUNNY     66  19  17 N9        29.99F
$$

...ELSEWHERE IN WISCONSIN...


CITY           SKY/WX    TMP DP  RH WIND       PRES   REMARKS
MILWAUKEE      MOSUNNY   54  39  57 NE9       30.00F
MADISON        SUNNY     64  37  36 CALM      29.99F
GREEN BAY      SUNNY     63  39  41 VRB5      29.98F
EAU CLAIRE     SUNNY     66  31  27 SW8       29.98F
BLACK RVR FLS  FAIR      68  27  21 NW7       30.00F
MEDFORD        SUNNY     62  36  38 SW12      29.98F
WAUSAU         SUNNY     65  33  30 W10       29.96F
WIS RAPIDS     SUNNY     66  21  18 NW3       30.00F
MARSHFIELD     SUNNY     65  30  27 W8        29.98F
RICE LAKE      SUNNY     67  30  24 W13       29.99S
$$

...NORTHEAST IOWA...


CITY           SKY/WX    TMP DP  RH WIND       PRES   REMARKS
WATERLOO       SUNNY     67  30  25 W8        30.05S
DUBUQUE        SUNNY     64  39  39 N6        30.03F
DECORAH        SUNNY     64  30  27 NW6       30.02S
MASON CITY     SUNNY     71  35  26 SW8       30.04F
CHARLES CITY   SUNNY     68  30  24 SW10      30.04F
OELWEIN        SUNNY     66  30  26 CALM      30.04S
$$

...ELSEWHERE IN IOWA...


CITY           SKY/WX    TMP DP  RH WIND       PRES   REMARKS
DES MOINES     MOSUNNY   69  32  25 VRB6      30.06F
IOWA CITY      SUNNY     65  39  38 W8        30.06S
FORT DODGE     SUNNY     72  37  28 SW7       30.05F
MARSHALLTOWN   SUNNY     67  30  25 VRB6      30.05F
CEDAR RAPIDS   SUNNY     66  37  34 VRB6      30.03F
$$

...NORTHERN ILLINOIS...


CITY           SKY/WX    TMP DP  RH WIND       PRES   REMARKS
CHICAGO-OHARE  MOSUNNY   60  42  51 E10       29.99S
CHICAGO-MIDWAY MOSUNNY   59  40  49 NE14      30.00S
MOLINE         SUNNY     67  36  31 NW10      30.02F
ROCKFORD       SUNNY     65  38  36 W8        30.02F
PEORIA         MOSUNNY   66  43  43 N10       30.01F
$$

NOTE: "FAIR" INDICATES FEW OR NO CLOUDS BELOW 12,000 FEET WITH NO
SIGNIFICANT WEATHER AND/OR OBSTRUCTIONS TO VISIBILITY. WIND
SPEEDS ARE IN MILES-PER-HOUR.




USA.gov is the U.S. government's official web portal to all federal, state and local government web resources and services.